Wind_Speed
7 10 11 12 14 18 21 22 21 23 24 28 26 25 25 23 28 24 23 28 36 36 32 34 37 37 36 36 34 30 30 27
9 8 11 12 13 13 15 17 18 22 26 29 26 25 23 22 22 23 24 24 32 36 34 35 41 40 38 41 37 33 30 28
8 13 15 15 17 14 13 13 17 22 24 26 20 21 19 20 19 20 22 23 31 34 34 34 42 39 40 39 38 32 31 32
8 12 14 15 17 15 13 11 13 20 22 23 21 20 13 16 21 23 25 25 26 28 33 30 41 43 40 40 40 36 31 31
7 10 13 15 18 13 9 9 11 19 23 24 26 24 20 19 21 22 22 23 24 27 33 35 38 42 41 45 40 38 35 32
8 10 12 14 17 15 9 7 10 17 22 25 25 21 16 14 18 19 20 22 22 21 27 32 42 43 44 43 40 37 35 33
9 12 13 15 17 13 10 7 10 15 22 23 22 18 14 14 17 17 17 19 17 21 27 33 39 36 41 41 40 38 33 32
10 13 13 16 19 16 9 7 11 13 20 20 20 17 17 17 16 17 18 20 21 25 29 33 33 36 39 38 38 37 34 32
11 12 12 17 20 20 15 9 13 15 20 20 20 20 18 19 17 16 20 19 21 27 29 31 33 35 41 36 36 36 34 33
10 11 12 15 18 23 18 9 11 16 20 20 21 20 19 19 17 17 17 21 23 22 28 27 31 36 37 35 31 32 32 32
9 9 11 16 17 16 22 11 11 15 18 22 22 22 22 19 16 16 15 18 18 27 30 30 30 31 38 37 29 30 31 31
8 8 13 17 15 17 16 17 13 14 19 24 23 22 21 20 18 16 14 15 17 19 26 30 31 33 34 34 36 32 33 32
7 7 10 14 15 16 20 21 17 17 20 23 22 20 21 20 19 17 14 13 13 16 18 21 26 36 38 36 35 33 36 34
8 8 8 9 12 17 18 19 28 18 22 23 21 20 20 20 19 16 12 11 11 14 18 19 21 24 27 40 42 39 38 36
8 9 8 9 12 14 17 19 25 16 20 21 19 20 20 20 19 15 13 11 10 12 13 13 13 17 24 39 42 40 39 40
8 7 9 10 15 15 14 16 24 23 20 21 19 19 19 19 19 15 14 11 8 9 8 7 8 10 16 31 32 34 31 28
7 8 10 11 15 16 17 15 22 27 19 21 21 20 20 20 19 16 14 13 10 10 8 8 6 7 13 20 27 27 29 33
8 10 10 13 16 16 17 17 21 22 17 20 21 21 20 21 20 18 17 17 15 14 14 14 15 16 16 24 27 31 36 33
8 9 12 16 18 18 22 18 20 19 21 19 22 22 20 21 21 20 23 22 21 20 18 19 21 23 21 31 36 35 35 33
Wind_Direction
291 294 315 299 287 273 259 254 240 223 218 209 200 196 190 194 200 211 215 217 216 208 209 203 200 194 185 179 180 187 186 179
293 332 333 325 304 290 272 251 223 208 206 200 193 189 185 196 202 209 210 210 213 210 208 201 194 190 186 184 183 186 186 179
338 337 333 330 326 302 278 241 215 208 201 197 197 193 196 200 203 204 203 210 216 220 210 204 196 191 183 181 179 183 183 178
345 347 348 334 328 315 272 240 214 210 203 196 196 184 184 193 205 206 205 213 217 216 217 221 192 187 177 177 180 181 175 177
358 342 350 348 348 332 282 248 210 211 205 192 195 189 189 201 200 196 203 214 219 229 240 232 186 180 180 177 181 182 178 177
347 349 344 353 360 349 320 273 213 216 205 202 200 204 205 198 188 191 201 211 227 224 229 219 198 186 179 178 181 185 184 178
353 357 347 354 356 352 333 292 239 215 208 209 202 204 200 193 182 193 194 195 206 207 200 187 185 181 178 180 177 185 185 186
1 2 355 349 349 344 330 284 244 210 213 204 203 201 202 200 195 201 190 180 182 189 192 187 182 179 178 176 177 187 186 188
9 6 357 354 350 345 327 275 242 217 212 203 201 194 197 198 198 203 196 188 188 197 193 192 191 186 182 177 182 189 191 193
1 356 1 357 358 355 340 284 256 225 213 202 195 197 201 202 193 203 192 195 194 195 197 192 197 194 185 180 183 189 192 194
346 347 351 351 352 358 355 315 280 239 218 212 200 204 202 199 192 195 193 192 198 206 196 195 193 195 191 191 188 193 193 196
335 335 343 342 343 348 358 336 273 243 219 215 211 204 202 200 189 190 192 200 210 204 201 202 196 193 195 198 197 193 199 199
317 326 342 348 348 348 359 354 272 239 221 215 214 202 201 199 191 186 191 199 212 217 226 225 202 204 204 197 197 199 199 201
300 316 337 353 355 346 348 346 341 237 211 211 208 196 201 198 192 184 181 189 211 226 230 230 226 229 207 200 200 198 197 195
295 292 310 335 348 353 349 345 333 256 207 207 203 201 203 198 189 174 176 183 196 206 212 224 241 248 234 212 201 199 197 195
285 309 316 333 340 344 351 344 341 317 199 201 203 201 198 192 181 164 165 170 182 186 188 201 236 243 242 203 192 188 191 183
317 328 327 328 330 336 333 343 332 315 216 201 204 193 195 188 176 164 166 167 168 167 153 165 169 204 199 182 174 166 162 157
326 331 337 329 329 335 327 336 317 307 292 200 198 191 189 188 175 167 162 163 163 161 143 136 129 135 183 175 173 152 145 142
345 343 339 335 332 336 329 334 315 306 292 208 189 189 188 189 174 162 161 155 148 144 141 138 134 134 160 157 145 135 129 128
Height
708 711 711 712 712 710 709 709 710 715 720 723 727 730 733 739 743 747 752 755 759 763 767 772 776 782 786 793 801 807 811 814
707 707 708 708 707 703 702 701 703 708 712 715 719 721 726 733 737 741 744 750 753 757 760 765 769 774 778 784 793 800 805 811
704 705 704 703 701 699 698 696 698 702 705 710 716 720 723 728 732 735 738 744 747 751 755 759 760 766 771 779 787 793 800 805
703 704 703 702 698 695 695 693 694 698 701 706 711 715 720 724 726 729 733 739 742 745 749 751 750 757 764 770 780 786 793 801
704 703 701 699 696 694 692 690 689 695 699 702 704 706 708 713 717 722 728 733 735 738 741 745 744 748 756 763 774 782 787 794
703 701 699 696 693 691 689 688 689 693 696 698 701 704 708 713 714 717 723 725 729 732 735 737 739 744 751 759 769 777 783 788
702 699 697 693 692 691 690 688 689 692 694 696 699 702 707 711 712 716 719 720 724 727 730 732 735 739 746 755 761 771 779 784
700 697 695 692 691 689 687 688 689 691 693 695 697 699 703 708 709 714 715 717 720 724 728 731 735 738 742 751 758 769 775 781
697 696 694 692 690 685 683 685 688 689 691 691 694 696 700 704 706 710 712 714 717 722 727 730 733 737 741 749 757 765 771 777
695 695 694 692 689 686 683 682 685 686 687 689 691 694 696 698 701 706 709 712 716 720 724 727 731 736 739 745 753 761 767 773
693 692 690 687 687 686 685 682 683 683 684 686 686 690 691 695 698 702 706 709 714 717 720 723 728 733 738 742 749 757 762 768
691 690 687 685 684 685 682 682 681 680 681 683 683 686 690 693 695 699 703 706 710 714 716 721 723 728 733 739 744 749 757 763
688 687 686 684 684 683 680 678 677 676 677 679 680 684 687 690 692 695 700 703 707 711 714 717 718 723 726 731 739 745 749 756
683 684 684 685 683 682 679 676 675 672 673 675 677 680 684 688 690 692 697 700 704 707 710 713 716 720 723 722 729 736 742 747
679 680 682 683 682 680 677 674 672 669 669 671 673 676 680 684 687 690 693 697 702 704 706 709 711 712 713 715 718 727 734 738
677 677 680 683 683 679 675 672 671 669 665 668 670 673 677 681 684 687 691 695 699 701 703 705 706 707 707 707 712 718 727 734
679 680 682 684 684 680 676 669 668 668 663 664 667 670 674 677 681 685 689 693 697 700 702 703 704 704 706 707 711 716 722 730
684 685 685 685 684 680 677 668 670 667 662 660 663 666 669 675 678 683 688 692 695 699 701 703 704 705 707 708 712 718 724 731
687 688 688 685 683 679 675 668 667 663 660 657 659 662 667 672 676 681 685 690 694 698 701 703 705 709 708 711 715 721 729 738